Data supplied by UK-AIR on 1/4/2020
All Data GMT hour ending 
Status: R =Ratified P=Provisional,P*=As supplied
,,Manchester Sharston,,,,,,,,,,,,,,,,,,,,,,,
Date,time,"Nitric oxide",status,unit,"Nitrogen dioxide",status,unit,"Nitrogen oxides as nitrogen dioxide",status,unit,"Ozone",status,unit
 
01-01-2019,01:00,0.86108,R,ugm-3,10.13594,R,ugm-3,11.45625,R,ugm-3,62.46541,R,ugm-3
01-01-2019,02:00,1.07635,R,ugm-3,11.19651,R,ugm-3,12.84690,R,ugm-3,63.19717,R,ugm-3
01-01-2019,03:00,0.71039,R,ugm-3,11.27754,R,ugm-3,12.36679,R,ugm-3,62.76477,R,ugm-3
01-01-2019,04:00,0.61352,R,ugm-3,9.29044,R,ugm-3,10.23116,R,ugm-3,62.01638,R,ugm-3
01-01-2019,05:00,0.48436,R,ugm-3,8.64417,R,ugm-3,9.38684,R,ugm-3,60.27014,R,ugm-3
01-01-2019,06:00,0.32291,R,ugm-3,8.79240,R,ugm-3,9.28751,R,ugm-3,58.52390,R,ugm-3
01-01-2019,07:00,0.47360,R,ugm-3,11.06119,R,ugm-3,11.78736,R,ugm-3,56.87745,R,ugm-3
01-01-2019,08:00,0.38749,R,ugm-3,9.83569,R,ugm-3,10.42982,R,ugm-3,57.22670,R,ugm-3
01-01-2019,09:00,0.68887,R,ugm-3,9.14180,R,ugm-3,10.19805,R,ugm-3,56.97724,R,ugm-3
01-01-2019,10:00,0.99025,R,ugm-3,11.85831,R,ugm-3,13.37667,R,ugm-3,64.11186,R,ugm-3
01-01-2019,11:00,1.03330,R,ugm-3,11.39497,R,ugm-3,12.97934,R,ugm-3,70.71430,R,ugm-3
01-01-2019,12:00,1.51766,R,ugm-3,11.72839,R,ugm-3,14.05543,R,ugm-3,69.05122,R,ugm-3
01-01-2019,13:00,1.80827,R,ugm-3,14.70972,R,ugm-3,17.48238,R,ugm-3,64.36133,R,ugm-3
01-01-2019,14:00,2.48638,R,ugm-3,16.99759,R,ugm-3,20.80999,R,ugm-3,58.17466,R,ugm-3
01-01-2019,15:00,2.90616,R,ugm-3,19.38356,R,ugm-3,23.83960,R,ugm-3,55.53035,R,ugm-3
01-01-2019,16:00,4.94047,R,ugm-3,30.02176,R,ugm-3,37.59704,R,ugm-3,39.06583,R,ugm-3
01-01-2019,17:00,43.78608,R,ugm-3,61.64579,R,ugm-3,128.78351,R,ugm-3,5.73764,R,ugm-3
01-01-2019,18:00,128.22606,R,ugm-3,74.06825,R,ugm-3,270.67880,R,ugm-3,0.99785,R,ugm-3
01-01-2019,19:00,157.80427,R,ugm-3,75.10352,R,ugm-3,317.06669,R,ugm-3,1.09764,R,ugm-3
01-01-2019,20:00,186.05856,R,ugm-3,63.02069,R,ugm-3,348.30650,R,ugm-3,1.39699,R,ugm-3
01-01-2019,21:00,154.05855,R,ugm-3,60.63287,R,ugm-3,296.85269,R,ugm-3,1.64645,R,ugm-3
01-01-2019,22:00,217.41275,R,ugm-3,51.84664,R,ugm-3,385.20822,R,ugm-3,1.59656,R,ugm-3
01-01-2019,23:00,200.42789,R,ugm-3,58.61940,R,ugm-3,365.93787,R,ugm-3,1.64645,R,ugm-3
01-01-2019,24:00,144.88802,R,ugm-3,43.75235,R,ugm-3,265.91088,R,ugm-3,1.64645,R,ugm-3
02-01-2019,01:00,184.80220,R,ugm-3,47.50858,R,ugm-3,330.86801,R,ugm-3,1.79613,R,ugm-3
02-01-2019,02:00,101.95984,R,ugm-3,46.11843,R,ugm-3,202.45466,R,ugm-3,1.19742,R,ugm-3
02-01-2019,03:00,51.73342,R,ugm-3,36.05979,R,ugm-3,115.38326,R,ugm-3,1.59656,R,ugm-3
02-01-2019,04:00,31.64716,R,ugm-3,37.05633,R,ugm-3,85.58130,R,ugm-3,1.74624,R,ugm-3
02-01-2019,05:00,56.96489,R,ugm-3,35.78682,R,ugm-3,123.13177,R,ugm-3,1.64645,R,ugm-3
02-01-2019,06:00,52.63763,R,ugm-3,33.67996,R,ugm-3,114.38987,R,ugm-3,1.54667,R,ugm-3
02-01-2019,07:00,68.91331,R,ugm-3,41.65543,R,ugm-3,147.32103,R,ugm-3,1.59656,R,ugm-3
02-01-2019,08:00,56.51279,R,ugm-3,45.17228,R,ugm-3,131.82401,R,ugm-3,1.39699,R,ugm-3
02-01-2019,09:00,78.21370,R,ugm-3,48.00806,R,ugm-3,167.93406,R,ugm-3,1.49678,R,ugm-3
02-01-2019,10:00,122.68119,R,ugm-3,54.77745,R,ugm-3,242.88599,R,ugm-3,1.89592,R,ugm-3
02-01-2019,11:00,118.09558,R,ugm-3,61.36159,R,ugm-3,242.43896,R,ugm-3,3.19312,R,ugm-3
02-01-2019,12:00,100.88340,R,ugm-3,64.55738,R,ugm-3,219.24310,R,ugm-3,2.99355,R,ugm-3
02-01-2019,13:00,82.41179,R,ugm-3,69.78359,R,ugm-3,196.14658,R,ugm-3,3.69205,R,ugm-3
02-01-2019,14:00,100.62506,R,ugm-3,86.95728,R,ugm-3,241.24688,R,ugm-3,8.93076,R,ugm-3
02-01-2019,15:00,46.14673,R,ugm-3,90.96798,R,ugm-3,161.72532,R,ugm-3,8.88087,R,ugm-3
02-01-2019,16:00,59.03165,R,ugm-3,86.16204,R,ugm-3,176.67597,R,ugm-3,4.29076,R,ugm-3
02-01-2019,17:00,43.04660,R,ugm-3,85.43977,R,ugm-3,151.44364,R,ugm-3,1.99570,R,ugm-3
02-01-2019,18:00,27.61054,R,ugm-3,78.61073,R,ugm-3,120.94630,R,ugm-3,8.33205,R,ugm-3
02-01-2019,19:00,28.15952,R,ugm-3,73.79538,R,ugm-3,116.97270,R,ugm-3,6.28646,R,ugm-3
02-01-2019,20:00,12.65887,R,ugm-3,68.10844,R,ugm-3,87.51843,R,ugm-3,10.17807,R,ugm-3
02-01-2019,21:00,20.57066,R,ugm-3,79.32207,R,ugm-3,110.86330,R,ugm-3,5.78753,R,ugm-3
02-01-2019,22:00,25.44690,R,ugm-3,74.42810,R,ugm-3,113.44614,R,ugm-3,6.03699,R,ugm-3
02-01-2019,23:00,10.97963,R,ugm-3,63.63010,R,ugm-3,80.46530,R,ugm-3,9.37979,R,ugm-3
02-01-2019,24:00,7.45969,R,ugm-3,57.95087,R,ugm-3,69.38890,R,ugm-3,11.32560,R,ugm-3
03-01-2019,01:00,5.81318,R,ugm-3,51.82138,R,ugm-3,60.73479,R,ugm-3,12.57291,R,ugm-3
03-01-2019,02:00,2.49751,R,ugm-3,42.79790,R,ugm-3,46.62736,R,ugm-3,18.09435,R,ugm-3
03-01-2019,03:00,1.42100,R,ugm-3,34.72898,R,ugm-3,36.90781,R,ugm-3,30.63400,R,ugm-3
03-01-2019,04:00,1.55018,R,ugm-3,32.54394,R,ugm-3,34.92085,R,ugm-3,31.13292,R,ugm-3
03-01-2019,05:00,1.38870,R,ugm-3,28.17185,R,ugm-3,30.30116,R,ugm-3,36.17206,R,ugm-3
03-01-2019,06:00,19.08660,R,ugm-3,42.76165,R,ugm-3,72.02736,R,ugm-3,9.32990,R,ugm-3
03-01-2019,07:00,117.78141,R,ugm-3,59.87638,R,ugm-3,240.47202,R,ugm-3,4.04129,R,ugm-3
03-01-2019,08:00,86.84239,R,ugm-3,63.50304,R,ugm-3,196.65952,R,ugm-3,6.08689,R,ugm-3
03-01-2019,09:00,47.44198,R,ugm-3,66.74135,R,ugm-3,139.48470,R,ugm-3,5.88732,R,ugm-3
03-01-2019,10:00,21.25039,R,ugm-3,59.31350,R,ugm-3,91.89697,R,ugm-3,23.44948,R,ugm-3
03-01-2019,11:00,3.03577,R,ugm-3,26.09345,R,ugm-3,30.74823,R,ugm-3,50.84046,R,ugm-3
03-01-2019,12:00,2.97118,R,ugm-3,24.60292,R,ugm-3,29.15866,R,ugm-3,51.18971,R,ugm-3
03-01-2019,13:00,3.42332,R,ugm-3,27.43651,R,ugm-3,32.68552,R,ugm-3,48.04648,R,ugm-3
03-01-2019,14:00,2.45445,R,ugm-3,25.79261,R,ugm-3,29.55605,R,ugm-3,51.83831,R,ugm-3
03-01-2019,15:00,3.10036,R,ugm-3,29.47159,R,ugm-3,34.22541,R,ugm-3,45.10282,R,ugm-3
03-01-2019,16:00,3.61709,R,ugm-3,34.73952,R,ugm-3,40.28565,R,ugm-3,37.61895,R,ugm-3
03-01-2019,17:00,10.14076,R,ugm-3,54.78949,R,ugm-3,70.33844,R,ugm-3,19.05894,R,ugm-3
03-01-2019,18:00,38.27008,R,ugm-3,65.90252,R,ugm-3,124.58249,R,ugm-3,10.92646,R,ugm-3
03-01-2019,19:00,34.52381,R,ugm-3,72.14346,R,ugm-3,125.07923,R,ugm-3,5.93721,R,ugm-3
03-01-2019,20:00,22.47762,R,ugm-3,65.03190,R,ugm-3,99.49710,R,ugm-3,12.37334,R,ugm-3
03-01-2019,21:00,11.75553,R,ugm-3,55.44300,R,ugm-3,73.46790,R,ugm-3,10.97635,R,ugm-3
03-01-2019,22:00,14.14540,R,ugm-3,57.54079,R,ugm-3,79.23009,R,ugm-3,6.58581,R,ugm-3
03-01-2019,23:00,7.23418,R,ugm-3,50.95063,R,ugm-3,62.04288,R,ugm-3,10.07829,R,ugm-3
03-01-2019,24:00,9.94699,R,ugm-3,52.60290,R,ugm-3,67.85474,R,ugm-3,8.83097,R,ugm-3
04-01-2019,01:00,4.30638,R,ugm-3,39.49830,R,ugm-3,46.10132,R,ugm-3,14.83470,R,ugm-3
04-01-2019,02:00,6.15812,R,ugm-3,46.92581,R,ugm-3,56.36813,R,ugm-3,11.37549,R,ugm-3
04-01-2019,03:00,1.80868,R,ugm-3,34.23695,R,ugm-3,37.01021,R,ugm-3,20.20646,R,ugm-3
04-01-2019,04:00,2.06706,R,ugm-3,31.75428,R,ugm-3,34.92373,R,ugm-3,18.31055,R,ugm-3
04-01-2019,05:00,3.55276,R,ugm-3,38.86541,R,ugm-3,44.31290,R,ugm-3,13.67055,R,ugm-3
04-01-2019,06:00,3.90804,R,ugm-3,38.76777,R,ugm-3,44.76001,R,ugm-3,14.76818,R,ugm-3
04-01-2019,07:00,4.97387,R,ugm-3,41.35616,R,ugm-3,48.98265,R,ugm-3,16.96345,R,ugm-3
04-01-2019,08:00,8.23595,R,ugm-3,45.09773,R,ugm-3,57.72600,R,ugm-3,13.92001,R,ugm-3
04-01-2019,09:00,12.24088,R,ugm-3,51.32678,R,ugm-3,70.09586,R,ugm-3,9.72904,R,ugm-3
04-01-2019,10:00,9.91543,R,ugm-3,47.83811,R,ugm-3,63.04156,R,ugm-3,13.67055,R,ugm-3
04-01-2019,11:00,9.43097,R,ugm-3,43.86153,R,ugm-3,58.32214,R,ugm-3,18.26066,R,ugm-3
04-01-2019,12:00,8.88190,R,ugm-3,42.36854,R,ugm-3,55.98727,R,ugm-3,21.85292,R,ugm-3
04-01-2019,13:00,8.00986,R,ugm-3,41.22174,R,ugm-3,53.50336,R,ugm-3,25.19571,R,ugm-3
04-01-2019,14:00,8.65582,R,ugm-3,44.70232,R,ugm-3,57.97439,R,ugm-3,19.70754,R,ugm-3
04-01-2019,15:00,10.30301,R,ugm-3,49.42968,R,ugm-3,65.22740,R,ugm-3,15.76603,R,ugm-3
04-01-2019,16:00,11.56262,R,ugm-3,48.88928,R,ugm-3,66.61839,R,ugm-3,14.11958,R,ugm-3
04-01-2019,17:00,18.70044,R,ugm-3,57.71668,R,ugm-3,86.39029,R,ugm-3,6.73549,R,ugm-3
04-01-2019,18:00,14.24334,R,ugm-3,55.11196,R,ugm-3,76.95144,R,ugm-3,5.43828,R,ugm-3
04-01-2019,19:00,20.15384,R,ugm-3,59.85984,R,ugm-3,90.76196,R,ugm-3,2.14538,R,ugm-3
04-01-2019,20:00,26.96868,R,ugm-3,58.30295,R,ugm-3,99.65435,R,ugm-3,2.34495,R,ugm-3
04-01-2019,21:00,19.96006,R,ugm-3,54.49366,R,ugm-3,85.09866,R,ugm-3,2.54452,R,ugm-3
04-01-2019,22:00,31.78106,R,ugm-3,57.33255,R,ugm-3,106.06283,R,ugm-3,1.84602,R,ugm-3
04-01-2019,23:00,31.61957,R,ugm-3,57.43113,R,ugm-3,105.91380,R,ugm-3,1.84602,R,ugm-3
04-01-2019,24:00,42.01947,R,ugm-3,57.48120,R,ugm-3,121.91016,R,ugm-3,1.84602,R,ugm-3
05-01-2019,01:00,48.49341,R,ugm-3,56.93809,R,ugm-3,131.29361,R,ugm-3,1.53004,R,ugm-3
05-01-2019,02:00,31.82649,R,ugm-3,58.44747,R,ugm-3,107.24740,R,ugm-3,2.39484,R,ugm-3
05-01-2019,03:00,4.16673,R,ugm-3,53.37884,R,ugm-3,59.76774,R,ugm-3,15.11743,R,ugm-3
05-01-2019,04:00,1.35661,R,ugm-3,31.90255,R,ugm-3,33.98265,R,ugm-3,43.05723,R,ugm-3
05-01-2019,05:00,0.77521,R,ugm-3,15.60397,R,ugm-3,16.79260,R,ugm-3,59.67143,R,ugm-3
05-01-2019,06:00,1.09821,R,ugm-3,20.52407,R,ugm-3,22.20796,R,ugm-3,50.59100,R,ugm-3
05-01-2019,07:00,2.64862,R,ugm-3,27.58643,R,ugm-3,31.64759,R,ugm-3,41.90970,R,ugm-3
05-01-2019,08:00,6.52465,R,ugm-3,59.05400,R,ugm-3,69.05832,R,ugm-3,16.31485,R,ugm-3
05-01-2019,09:00,6.49235,R,ugm-3,53.09198,R,ugm-3,63.04677,R,ugm-3,18.51012,R,ugm-3
05-01-2019,10:00,8.85026,R,ugm-3,50.56956,R,ugm-3,64.13978,R,ugm-3,18.11098,R,ugm-3
05-01-2019,11:00,18.63723,R,ugm-3,54.98885,R,ugm-3,83.56553,R,ugm-3,11.62495,R,ugm-3
05-01-2019,12:00,42.41020,R,ugm-3,79.49758,R,ugm-3,144.52564,R,ugm-3,6.68560,R,ugm-3
05-01-2019,13:00,29.74851,R,ugm-3,74.17015,R,ugm-3,119.78389,R,ugm-3,12.57291,R,ugm-3
05-01-2019,14:00,26.93839,R,ugm-3,71.52342,R,ugm-3,112.82837,R,ugm-3,11.57506,R,ugm-3
05-01-2019,15:00,23.74067,R,ugm-3,73.94241,R,ugm-3,110.34426,R,ugm-3,10.62710,R,ugm-3
05-01-2019,16:00,27.74589,R,ugm-3,73.56429,R,ugm-3,116.10740,R,ugm-3,10.87657,R,ugm-3
05-01-2019,17:00,26.51849,R,ugm-3,74.99915,R,ugm-3,115.66026,R,ugm-3,10.92646,R,ugm-3
05-01-2019,18:00,34.49664,R,ugm-3,76.82622,R,ugm-3,129.72034,R,ugm-3,9.67915,R,ugm-3
05-01-2019,19:00,5.81404,R,ugm-3,42.80448,R,ugm-3,51.71922,R,ugm-3,49.44347,R,ugm-3
05-01-2019,20:00,2.26102,R,ugm-3,20.38064,R,ugm-3,23.84748,R,ugm-3,61.81681,R,ugm-3
05-01-2019,21:00,6.29854,R,ugm-3,43.40300,R,ugm-3,53.06064,R,ugm-3,34.37593,R,ugm-3
05-01-2019,22:00,7.78435,R,ugm-3,57.02311,R,ugm-3,68.95895,R,ugm-3,26.19356,R,ugm-3
05-01-2019,23:00,13.04929,R,ugm-3,64.05372,R,ugm-3,84.06236,R,ugm-3,16.81377,R,ugm-3
05-01-2019,24:00,6.29854,R,ugm-3,53.43882,R,ugm-3,63.09645,R,ugm-3,22.50152,R,ugm-3
06-01-2019,01:00,11.15517,R,ugm-3,56.63018,R,ugm-3,73.73454,R,ugm-3,15.63298,R,ugm-3
06-01-2019,02:00,4.52237,R,ugm-3,46.92580,R,ugm-3,53.86000,R,ugm-3,21.81965,R,ugm-3
06-01-2019,03:00,3.23026,R,ugm-3,37.08165,R,ugm-3,42.03465,R,ugm-3,25.39528,R,ugm-3
06-01-2019,04:00,2.39039,R,ugm-3,27.93530,R,ugm-3,31.60052,R,ugm-3,29.33679,R,ugm-3
06-01-2019,05:00,2.39039,R,ugm-3,31.11522,R,ugm-3,34.78044,R,ugm-3,27.44088,R,ugm-3
06-01-2019,06:00,2.61651,R,ugm-3,27.73764,R,ugm-3,31.74958,R,ugm-3,31.53206,R,ugm-3
06-01-2019,07:00,8.59250,R,ugm-3,49.33044,R,ugm-3,62.50542,R,ugm-3,15.11743,R,ugm-3
06-01-2019,08:00,5.62066,R,ugm-3,43.45307,R,ugm-3,52.07129,R,ugm-3,22.45163,R,ugm-3
06-01-2019,09:00,9.27085,R,ugm-3,49.08529,R,ugm-3,63.30040,R,ugm-3,10.42753,R,ugm-3
06-01-2019,10:00,7.04197,R,ugm-3,41.17438,R,ugm-3,51.97192,R,ugm-3,17.91141,R,ugm-3
06-01-2019,11:00,8.46329,R,ugm-3,38.29945,R,ugm-3,51.27631,R,ugm-3,19.95700,R,ugm-3
06-01-2019,12:00,20.25375,R,ugm-3,44.41825,R,ugm-3,75.47356,R,ugm-3,15.66625,R,ugm-3
06-01-2019,13:00,22.41802,R,ugm-3,54.41568,R,ugm-3,88.78950,R,ugm-3,10.52732,R,ugm-3
06-01-2019,14:00,15.92520,R,ugm-3,48.81938,R,ugm-3,73.23767,R,ugm-3,10.37764,R,ugm-3
06-01-2019,15:00,28.87855,R,ugm-3,59.46527,R,ugm-3,103.74509,R,ugm-3,5.73764,R,ugm-3
06-01-2019,16:00,18.05717,R,ugm-3,46.14664,R,ugm-3,73.83391,R,ugm-3,9.13033,R,ugm-3
06-01-2019,17:00,20.12454,R,ugm-3,54.55363,R,ugm-3,85.41083,R,ugm-3,4.39054,R,ugm-3
06-01-2019,18:00,22.51493,R,ugm-3,53.96897,R,ugm-3,88.49138,R,ugm-3,2.79398,R,ugm-3
06-01-2019,19:00,20.38296,R,ugm-3,53.11398,R,ugm-3,84.36741,R,ugm-3,4.44043,R,ugm-3
06-01-2019,20:00,31.23664,R,ugm-3,59.87417,R,ugm-3,107.76968,R,ugm-3,7.63355,R,ugm-3
06-01-2019,21:00,11.30592,R,ugm-3,50.58573,R,ugm-3,67.92123,R,ugm-3,14.11958,R,ugm-3
06-01-2019,22:00,6.33132,R,ugm-3,40.32627,R,ugm-3,50.03415,R,ugm-3,13.47098,R,ugm-3
06-01-2019,23:00,4.19934,R,ugm-3,33.31018,R,ugm-3,39.74908,R,ugm-3,19.90711,R,ugm-3
06-01-2019,24:00,2.09967,R,ugm-3,26.69173,R,ugm-3,29.91118,R,ugm-3,25.64475,R,ugm-3
07-01-2019,01:00,1.67986,R,ugm-3,24.19084,R,ugm-3,26.76659,R,ugm-3,30.46769,R,ugm-3
07-01-2019,02:00,1.24913,R,ugm-3,15.84075,R,ugm-3,17.75605,R,ugm-3,39.98052,R,ugm-3
07-01-2019,03:00,1.32451,R,ugm-3,15.41047,R,ugm-3,17.44135,R,ugm-3,40.46282,R,ugm-3
07-01-2019,04:00,1.55064,R,ugm-3,16.70352,R,ugm-3,19.08113,R,ugm-3,38.11787,R,ugm-3
07-01-2019,05:00,1.51834,R,ugm-3,12.08215,R,ugm-3,14.41023,R,ugm-3,44.55400,R,ugm-3
07-01-2019,06:00,1.16298,R,ugm-3,10.88785,R,ugm-3,12.67106,R,ugm-3,44.85336,R,ugm-3
07-01-2019,07:00,2.16444,R,ugm-3,15.86176,R,ugm-3,19.18051,R,ugm-3,39.01594,R,ugm-3
07-01-2019,08:00,6.10565,R,ugm-3,26.31587,R,ugm-3,35.67774,R,ugm-3,31.48217,R,ugm-3
07-01-2019,09:00,6.65484,R,ugm-3,25.72225,R,ugm-3,35.92619,R,ugm-3,34.37593,R,ugm-3
07-01-2019,10:00,5.55647,R,ugm-3,23.72931,R,ugm-3,32.24910,R,ugm-3,32.97894,R,ugm-3
07-01-2019,11:00,4.36118,R,ugm-3,18.80415,R,ugm-3,25.49120,R,ugm-3,39.36518,R,ugm-3
07-01-2019,12:00,14.08499,R,ugm-3,30.47890,R,ugm-3,52.07559,R,ugm-3,30.63400,R,ugm-3
07-01-2019,13:00,25.77941,R,ugm-3,50.41183,R,ugm-3,89.93971,R,ugm-3,15.21721,R,ugm-3
07-01-2019,14:00,15.02184,R,ugm-3,38.18547,R,ugm-3,61.21863,R,ugm-3,25.04604,R,ugm-3
07-01-2019,15:00,12.46974,R,ugm-3,33.70094,R,ugm-3,52.82095,R,ugm-3,35.17421,R,ugm-3
07-01-2019,16:00,4.19965,R,ugm-3,18.70399,R,ugm-3,25.14337,R,ugm-3,53.08562,R,ugm-3
07-01-2019,17:00,3.87660,R,ugm-3,19.05025,R,ugm-3,24.99429,R,ugm-3,54.08347,R,ugm-3
07-01-2019,18:00,3.32742,R,ugm-3,18.25254,R,ugm-3,23.35451,R,ugm-3,62.91444,R,ugm-3
07-01-2019,19:00,2.26135,R,ugm-3,17.45232,R,ugm-3,20.91968,R,ugm-3,65.00993,R,ugm-3
07-01-2019,20:00,2.16444,R,ugm-3,17.00464,R,ugm-3,20.32339,R,ugm-3,64.11186,R,ugm-3
07-01-2019,21:00,1.29220,R,ugm-3,13.62145,R,ugm-3,15.60280,R,ugm-3,66.00778,R,ugm-3
07-01-2019,22:00,0.93685,R,ugm-3,10.09171,R,ugm-3,11.52819,R,ugm-3,67.95359,R,ugm-3
07-01-2019,23:00,0.77532,R,ugm-3,8.99773,R,ugm-3,10.18654,R,ugm-3,68.80176,R,ugm-3
07-01-2019,24:00,0.41997,R,ugm-3,7.30653,R,ugm-3,7.95047,R,ugm-3,69.20090,R,ugm-3
08-01-2019,01:00,0.21538,R,ugm-3,6.16317,R,ugm-3,6.49342,R,ugm-3,68.91817,R,ugm-3
08-01-2019,02:00,0.38769,R,ugm-3,6.23027,R,ugm-3,6.82472,R,ugm-3,70.18212,R,ugm-3
08-01-2019,03:00,0.32307,R,ugm-3,6.06431,R,ugm-3,6.55968,R,ugm-3,69.74972,R,ugm-3
08-01-2019,04:00,0.42000,R,ugm-3,6.46234,R,ugm-3,7.10632,R,ugm-3,71.99488,R,ugm-3
08-01-2019,05:00,0.48461,R,ugm-3,5.56815,R,ugm-3,6.31121,R,ugm-3,76.23574,R,ugm-3
08-01-2019,06:00,0.42000,R,ugm-3,5.76661,R,ugm-3,6.41060,R,ugm-3,75.18800,R,ugm-3
08-01-2019,07:00,0.80769,R,ugm-3,9.94284,R,ugm-3,11.18127,R,ugm-3,68.85165,R,ugm-3
08-01-2019,08:00,2.32614,R,ugm-3,19.29280,R,ugm-3,22.85949,R,ugm-3,58.42412,R,ugm-3
08-01-2019,09:00,4.94304,R,ugm-3,29.69169,R,ugm-3,37.27091,R,ugm-3,50.49121,R,ugm-3
08-01-2019,10:00,,,,,,,,,,,,
08-01-2019,11:00,,,,,,,,,,,,
08-01-2019,12:00,,,,,,,,,,,,
08-01-2019,13:00,,,,,,,,,,,,
08-01-2019,14:00,3.16613,R,ugm-3,17.06063,R,ugm-3,21.91530,R,ugm-3,59.37208,R,ugm-3
08-01-2019,15:00,3.87689,R,ugm-3,23.57408,R,ugm-3,29.51856,R,ugm-3,54.48261,R,ugm-3
08-01-2019,16:00,6.49379,R,ugm-3,36.85525,R,ugm-3,46.81226,R,ugm-3,38.96604,R,ugm-3
08-01-2019,17:00,52.95188,R,ugm-3,77.43325,R,ugm-3,158.62500,R,ugm-3,8.13248,R,ugm-3
08-01-2019,18:00,49.78575,R,ugm-3,78.61052,R,ugm-3,154.94760,R,ugm-3,5.98710,R,ugm-3
08-01-2019,19:00,29.94899,R,ugm-3,69.81747,R,ugm-3,115.73860,R,ugm-3,3.14323,R,ugm-3
08-01-2019,20:00,15.28141,R,ugm-3,66.86382,R,ugm-3,90.29500,R,ugm-3,6.03699,R,ugm-3
08-01-2019,21:00,17.12294,R,ugm-3,67.51881,R,ugm-3,93.77361,R,ugm-3,4.93936,R,ugm-3
08-01-2019,22:00,10.88760,R,ugm-3,58.54345,R,ugm-3,75.23755,R,ugm-3,6.38624,R,ugm-3
08-01-2019,23:00,41.06274,R,ugm-3,56.20553,R,ugm-3,119.16753,R,ugm-3,1.14753,R,ugm-3
08-01-2019,24:00,11.92144,R,ugm-3,54.62261,R,ugm-3,72.90190,R,ugm-3,1.64645,R,ugm-3
09-01-2019,01:00,59.44131,R,ugm-3,50.10078,R,ugm-3,141.24286,R,ugm-3,0.79828,R,ugm-3
09-01-2019,02:00,28.47153,R,ugm-3,41.30188,R,ugm-3,84.95761,R,ugm-3,0.39914,R,ugm-3
09-01-2019,03:00,67.09761,R,ugm-3,34.73585,R,ugm-3,137.61742,R,ugm-3,0.64860,R,ugm-3
09-01-2019,04:00,51.55888,R,ugm-3,34.87211,R,ugm-3,113.92796,R,ugm-3,0.99785,R,ugm-3
09-01-2019,05:00,93.20010,R,ugm-3,40.75061,R,ugm-3,183.65544,R,ugm-3,1.64645,R,ugm-3
09-01-2019,06:00,139.71939,R,ugm-3,46.99634,R,ugm-3,261.22975,R,ugm-3,0.89807,R,ugm-3
09-01-2019,07:00,151.28460,R,ugm-3,57.77009,R,ugm-3,289.73657,R,ugm-3,0.84817,R,ugm-3
09-01-2019,08:00,210.07981,R,ugm-3,72.20991,R,ugm-3,394.32780,R,ugm-3,1.24731,R,ugm-3
09-01-2019,09:00,350.05764,R,ugm-3,101.22912,R,ugm-3,637.97669,R,ugm-3,1.54667,R,ugm-3
09-01-2019,10:00,225.74777,R,ugm-3,92.88316,R,ugm-3,439.02491,R,ugm-3,1.79613,R,ugm-3
09-01-2019,11:00,107.15589,R,ugm-3,78.35222,R,ugm-3,242.65562,R,ugm-3,4.73979,R,ugm-3
09-01-2019,12:00,52.04345,R,ugm-3,71.17804,R,ugm-3,150.97689,R,ugm-3,6.73549,R,ugm-3
09-01-2019,13:00,22.96890,R,ugm-3,63.66145,R,ugm-3,98.87993,R,ugm-3,16.21506,R,ugm-3
09-01-2019,14:00,8.30240,R,ugm-3,42.39626,R,ugm-3,55.12643,R,ugm-3,41.61035,R,ugm-3
09-01-2019,15:00,9.07772,R,ugm-3,49.84889,R,ugm-3,63.76787,R,ugm-3,42.95744,R,ugm-3
09-01-2019,16:00,14.98955,R,ugm-3,61.94085,R,ugm-3,84.92450,R,ugm-3,18.11098,R,ugm-3
09-01-2019,17:00,36.66624,R,ugm-3,75.93365,R,ugm-3,132.15444,R,ugm-3,7.98280,R,ugm-3
09-01-2019,18:00,191.37518,R,ugm-3,101.13826,R,ugm-3,394.57612,R,ugm-3,0.94796,R,ugm-3
09-01-2019,19:00,194.31494,R,ugm-3,98.31925,R,ugm-3,396.26467,R,ugm-3,1.04774,R,ugm-3
09-01-2019,20:00,77.11218,R,ugm-3,80.76442,R,ugm-3,199.00145,R,ugm-3,0.94796,R,ugm-3
09-01-2019,21:00,132.25692,R,ugm-3,77.65839,R,ugm-3,280.44951,R,ugm-3,1.24731,R,ugm-3
09-01-2019,22:00,148.53867,R,ugm-3,79.61098,R,ugm-3,307.36710,R,ugm-3,1.44688,R,ugm-3
09-01-2019,23:00,171.99214,R,ugm-3,72.95092,R,ugm-3,336.66853,R,ugm-3,1.34710,R,ugm-3
09-01-2019,24:00,72.58947,R,ugm-3,65.89689,R,ugm-3,177.19919,R,ugm-3,0.99785,R,ugm-3
10-01-2019,01:00,76.01900,R,ugm-3,56.22592,R,ugm-3,172.78676,R,ugm-3,0.79828,R,ugm-3
10-01-2019,02:00,45.13763,R,ugm-3,47.26052,R,ugm-3,116.47059,R,ugm-3,0.39914,R,ugm-3
10-01-2019,03:00,43.60863,R,ugm-3,39.89355,R,ugm-3,106.75919,R,ugm-3,0.69850,R,ugm-3
10-01-2019,04:00,46.70969,R,ugm-3,43.42726,R,ugm-3,115.04779,R,ugm-3,0.79828,R,ugm-3
10-01-2019,05:00,31.94736,R,ugm-3,46.60664,R,ugm-3,95.59191,R,ugm-3,0.74839,R,ugm-3
10-01-2019,06:00,36.08211,R,ugm-3,50.29252,R,ugm-3,105.61765,R,ugm-3,0.59871,R,ugm-3
10-01-2019,07:00,77.62337,R,ugm-3,53.65011,R,ugm-3,172.67096,R,ugm-3,0.89807,R,ugm-3
10-01-2019,08:00,49.42312,R,ugm-3,59.56637,R,ugm-3,135.34743,R,ugm-3,3.29291,R,ugm-3
10-01-2019,09:00,62.27959,R,ugm-3,64.86809,R,ugm-3,160.36213,R,ugm-3,1.29721,R,ugm-3
10-01-2019,10:00,49.58463,R,ugm-3,63.28931,R,ugm-3,139.31801,R,ugm-3,1.89592,R,ugm-3
10-01-2019,11:00,31.91506,R,ugm-3,59.31242,R,ugm-3,108.24816,R,ugm-3,3.29291,R,ugm-3
10-01-2019,12:00,32.90568,R,ugm-3,58.47180,R,ugm-3,108.92647,R,ugm-3,4.98925,R,ugm-3
10-01-2019,13:00,28.65249,R,ugm-3,57.46570,R,ugm-3,101.39890,R,ugm-3,2.74409,R,ugm-3
10-01-2019,14:00,42.57495,R,ugm-3,59.99138,R,ugm-3,125.27206,R,ugm-3,1.94581,R,ugm-3
10-01-2019,15:00,66.80197,R,ugm-3,69.29968,R,ugm-3,171.72794,R,ugm-3,1.64645,R,ugm-3
10-01-2019,16:00,60.63215,R,ugm-3,60.54486,R,ugm-3,153.51287,R,ugm-3,0.84817,R,ugm-3
10-01-2019,17:00,85.92516,R,ugm-3,62.80875,R,ugm-3,194.55882,R,ugm-3,0.89807,R,ugm-3
10-01-2019,18:00,87.34648,R,ugm-3,62.56508,R,ugm-3,196.49448,R,ugm-3,0.79828,R,ugm-3
10-01-2019,19:00,81.24127,R,ugm-3,59.12113,R,ugm-3,183.68934,R,ugm-3,0.74839,R,ugm-3
10-01-2019,20:00,98.62012,R,ugm-3,63.84158,R,ugm-3,215.05698,R,ugm-3,0.64860,R,ugm-3
10-01-2019,21:00,123.91313,R,ugm-3,69.43083,R,ugm-3,259.42831,R,ugm-3,0.74839,R,ugm-3
10-01-2019,22:00,113.67317,R,ugm-3,53.81386,R,ugm-3,228.11029,R,ugm-3,0.54882,R,ugm-3
10-01-2019,23:00,136.44657,R,ugm-3,51.65249,R,ugm-3,260.86765,R,ugm-3,0.44903,R,ugm-3
10-01-2019,24:00,97.94176,R,ugm-3,62.99568,R,ugm-3,213.17096,R,ugm-3,0.54882,R,ugm-3
11-01-2019,01:00,68.80014,R,ugm-3,55.96711,R,ugm-3,161.45918,R,ugm-3,0.33262,R,ugm-3
11-01-2019,02:00,60.14630,R,ugm-3,41.57633,R,ugm-3,133.79937,R,ugm-3,,,
11-01-2019,03:00,58.57483,R,ugm-3,35.15194,R,ugm-3,124.96543,R,ugm-3,0.19957,R,ugm-3
11-01-2019,04:00,37.65064,R,ugm-3,36.61426,R,ugm-3,94.34444,R,ugm-3,1.44688,R,ugm-3
11-01-2019,05:00,7.55596,R,ugm-3,28.56409,R,ugm-3,40.14974,R,ugm-3,15.91571,R,ugm-3
11-01-2019,06:00,10.26836,R,ugm-3,33.68574,R,ugm-3,49.43033,R,ugm-3,9.97850,R,ugm-3
11-01-2019,07:00,89.34761,R,ugm-3,48.96152,R,ugm-3,185.95929,R,ugm-3,0.29936,R,ugm-3
11-01-2019,08:00,278.18203,R,ugm-3,73.96708,R,ugm-3,500.50691,R,ugm-3,0.59871,R,ugm-3
11-01-2019,09:00,301.30197,R,ugm-3,85.86291,R,ugm-3,547.85283,R,ugm-3,0.59871,R,ugm-3
11-01-2019,10:00,190.02916,R,ugm-3,70.86696,R,ugm-3,362.24095,R,ugm-3,0.79828,R,ugm-3
11-01-2019,11:00,91.64023,R,ugm-3,66.68737,R,ugm-3,207.20043,R,ugm-3,2.04559,R,ugm-3
11-01-2019,12:00,36.06841,R,ugm-3,65.83989,R,ugm-3,121.14401,R,ugm-3,6.43613,R,ugm-3
11-01-2019,13:00,24.28240,R,ugm-3,67.28585,R,ugm-3,104.51835,R,ugm-3,7.43398,R,ugm-3
11-01-2019,14:00,31.12797,R,ugm-3,73.81215,R,ugm-3,121.54104,R,ugm-3,6.28646,R,ugm-3
11-01-2019,15:00,23.70117,R,ugm-3,65.94376,R,ugm-3,102.28505,R,ugm-3,7.88302,R,ugm-3
11-01-2019,16:00,38.94226,R,ugm-3,73.69171,R,ugm-3,133.40234,R,ugm-3,3.09334,R,ugm-3
11-01-2019,17:00,85.44047,R,ugm-3,82.99269,R,ugm-3,213.99958,R,ugm-3,0.74839,R,ugm-3
11-01-2019,18:00,72.00765,R,ugm-3,91.23181,R,ugm-3,201.64200,R,ugm-3,1.79613,R,ugm-3
11-01-2019,19:00,28.25412,R,ugm-3,87.30074,R,ugm-3,130.62312,R,ugm-3,2.59441,R,ugm-3
11-01-2019,20:00,31.64462,R,ugm-3,78.23100,R,ugm-3,126.75207,R,ugm-3,6.23656,R,ugm-3
11-01-2019,21:00,7.23306,R,ugm-3,49.05963,R,ugm-3,60.15016,R,ugm-3,19.90711,R,ugm-3
11-01-2019,22:00,5.58624,R,ugm-3,39.72341,R,ugm-3,48.28887,R,ugm-3,26.19356,R,ugm-3
11-01-2019,23:00,7.39451,R,ugm-3,40.92109,R,ugm-3,52.25918,R,ugm-3,22.65120,R,ugm-3
11-01-2019,24:00,1.90514,R,ugm-3,24.07693,R,ugm-3,26.99809,R,ugm-3,37.36948,R,ugm-3
12-01-2019,01:00,3.61515,R,ugm-3,33.03227,R,ugm-3,38.57543,R,ugm-3,28.13937,R,ugm-3
12-01-2019,02:00,1.03290,R,ugm-3,18.39871,R,ugm-3,19.98247,R,ugm-3,38.71658,R,ugm-3
12-01-2019,03:00,0.64556,R,ugm-3,9.82847,R,ugm-3,10.81832,R,ugm-3,49.24390,R,ugm-3
12-01-2019,04:00,0.41962,R,ugm-3,8.48766,R,ugm-3,9.13106,R,ugm-3,48.14626,R,ugm-3
12-01-2019,05:00,0.67784,R,ugm-3,10.02711,R,ugm-3,11.06645,R,ugm-3,49.54325,R,ugm-3
12-01-2019,06:00,0.51645,R,ugm-3,6.60230,R,ugm-3,7.39418,R,ugm-3,56.07917,R,ugm-3
12-01-2019,07:00,0.90379,R,ugm-3,8.34078,R,ugm-3,9.72657,R,ugm-3,55.58025,R,ugm-3
12-01-2019,08:00,1.00062,R,ugm-3,9.73069,R,ugm-3,11.26495,R,ugm-3,61.06842,R,ugm-3
12-01-2019,09:00,1.38796,R,ugm-3,10.47666,R,ugm-3,12.60484,R,ugm-3,64.26154,R,ugm-3
12-01-2019,10:00,1.54935,R,ugm-3,11.46983,R,ugm-3,13.84547,R,ugm-3,65.00993,R,ugm-3
12-01-2019,11:00,2.58225,R,ugm-3,14.94786,R,ugm-3,18.90725,R,ugm-3,62.46541,R,ugm-3
12-01-2019,12:00,3.48604,R,ugm-3,16.63884,R,ugm-3,21.98403,R,ugm-3,61.11831,R,ugm-3
12-01-2019,13:00,3.48604,R,ugm-3,16.29146,R,ugm-3,21.63665,R,ugm-3,60.27014,R,ugm-3
12-01-2019,14:00,4.22844,R,ugm-3,18.57728,R,ugm-3,25.06080,R,ugm-3,59.02283,R,ugm-3
12-01-2019,15:00,4.22844,R,ugm-3,17.53515,R,ugm-3,24.01867,R,ugm-3,59.12261,R,ugm-3
12-01-2019,16:00,4.58350,R,ugm-3,18.72762,R,ugm-3,25.75555,R,ugm-3,54.93164,R,ugm-3
12-01-2019,17:00,3.71199,R,ugm-3,17.43377,R,ugm-3,23.12541,R,ugm-3,54.18326,R,ugm-3
12-01-2019,18:00,2.42086,R,ugm-3,15.84045,R,ugm-3,19.55238,R,ugm-3,55.48046,R,ugm-3
12-01-2019,19:00,1.45252,R,ugm-3,12.85894,R,ugm-3,15.08610,R,ugm-3,59.72132,R,ugm-3